Weather History for Truckee-Tahoe, CA

Change the Weather History Date:

Sunday, February 19, 2012

  Actual Average Record
Temperature  
Mean Temperature 28 °F -  
Max Temperature 41 °F 43 °F 65 °F (1950)
Min Temperature 14 °F 18 °F -2 °F (1990)
Degree Days  
Heating Degree Days 38    
Moisture  
Dew Point 15 °F    
Average Humidity 68    
Maximum Humidity 93    
Minimum Humidity 21    
Precipitation  
Precipitation 0.00 in - - ()
Sea Level Pressure  
Sea Level Pressure 30.01 in    
Wind  
Wind Speed 4 mph (WSW)    
Max Wind Speed 13 mph    
Max Gust Speed 18 mph    
Visibility 10 miles    
Events      
Averages and records for this station are not official NWS values.
T = Trace of Precipitation, MM = Missing Value Source: NWS Daily Summary

Daily Weather History Graph

Daily Weather History Graph

Search for Another Location

Airport:

Trip Planner

Search our weather history database for the weather conditions in past years. The results will help you decide how hot, cold, wet, or windy it might be!

Date:

Astronomy

Feb. 19, 2012 Rise Set
Actual Time 6:47 AM PST 5:41 PM PST
Civil Twilight 6:20 AM PST 6:08 PM PST
Nautical Twilight 5:49 AM PST 6:40 PM PST
Astronomical Twilight 5:18 AM PST 7:11 PM PST
Moon 5:11 AM PST (2/19) 3:48 PM PST (2/19)
Length of Visible Light 11h 48m
Length of Day
10h 53m
Waning Crescent, 5% of the Moon is Illuminated
Feb 19
Waning Crescent
Feb 21
New
Feb 29
First Quarter
Mar 8
Full
Mar 14
Last Quarter

Hourly Weather History & Observations

Time (PST) Temp. Windchill Dew Point Humidity Pressure Visibility Wind Dir Wind Speed Gust Speed Precip Events Conditions
12:15 AM 24.8 °F 19.1 °F 15.8 °F 69% 30.03 in 10.0 mi NNW 4.6 mph - N/A   Overcast
12:35 AM 24.8 °F 20.5 °F 15.8 °F 69% 30.03 in 10.0 mi North 3.5 mph - N/A   Mostly Cloudy
12:55 AM 24.8 °F 19.1 °F 14.0 °F 64% 30.03 in 10.0 mi North 4.6 mph - N/A   Overcast
1:15 AM 24.8 °F 19.1 °F 14.0 °F 64% 30.03 in 10.0 mi North 4.6 mph - N/A   Overcast
1:35 AM 23.0 °F 17.0 °F 12.2 °F 63% 30.03 in 10.0 mi NNW 4.6 mph - N/A   Partly Cloudy
1:55 AM 23.0 °F 17.0 °F 14.0 °F 68% 30.03 in 10.0 mi NNW 4.6 mph - N/A   Clear
2:15 AM 21.2 °F - 14.0 °F 74% 30.03 in 10.0 mi Calm Calm - N/A   Clear
2:35 AM 21.2 °F 16.4 °F 14.0 °F 74% 30.02 in 10.0 mi SW 3.5 mph - N/A   Clear
2:55 AM 19.4 °F - 14.0 °F 80% 30.02 in 10.0 mi Calm Calm - N/A   Clear
3:15 AM 19.4 °F 14.3 °F 14.0 °F 80% 30.02 in 10.0 mi SE 3.5 mph - N/A   Clear
3:35 AM 17.6 °F 12.3 °F 14.0 °F 86% 30.01 in 10.0 mi ESE 3.5 mph - N/A   Clear
3:55 AM 17.6 °F - 14.0 °F 86% 30.01 in 10.0 mi Calm Calm - N/A   Clear
4:15 AM 17.6 °F - 14.0 °F 86% 30.01 in 10.0 mi Calm Calm - N/A   Clear
4:35 AM 15.8 °F - 14.0 °F 93% 30.01 in 10.0 mi Calm Calm - N/A   Clear
4:55 AM 15.8 °F 10.2 °F 12.2 °F 86% 30.01 in 10.0 mi South 3.5 mph - N/A   Clear
5:15 AM 15.8 °F - 14.0 °F 93% 30.01 in 10.0 mi Calm Calm - N/A   Clear
5:35 AM 15.8 °F - 12.2 °F 86% 30.02 in 10.0 mi Calm Calm - N/A   Clear
6:45 AM 14.0 °F - 12.2 °F 93% 30.02 in 10.0 mi Calm Calm - N/A   Clear
7:55 AM 15.8 °F - 12.2 °F 86% 30.03 in 10.0 mi Calm Calm - N/A   Mostly Cloudy
8:55 AM 19.4 °F - 14.0 °F 80% 30.04 in 10.0 mi Calm Calm - N/A   Mostly Cloudy
9:50 AM 24.8 °F - 14.0 °F 64% 30.04 in 10.0 mi Calm Calm - N/A   Scattered Clouds
10:50 AM 30.2 °F 26.7 °F 14.0 °F 51% 30.02 in 10.0 mi NE 3.5 mph - N/A   Scattered Clouds
11:45 AM 33.8 °F - 3.2 °F 28% 30.01 in 10.0 mi Calm Calm - N/A   Scattered Clouds
12:50 PM 37.4 °F 34.9 °F 8.6 °F 30% 29.97 in 10.0 mi ESE 3.5 mph - N/A   Scattered Clouds
1:50 PM 41.0 °F 35.8 °F 3.2 °F 21% 29.95 in 10.0 mi West 8.1 mph - N/A   Partly Cloudy
2:50 PM 39.2 °F 33.6 °F 6.8 °F 26% 29.95 in 10.0 mi West 8.1 mph 16.1 mph N/A   Partly Cloudy
3:50 PM 39.2 °F 31.6 °F 6.8 °F 26% 29.95 in 10.0 mi WNW 12.7 mph 18.4 mph N/A   Partly Cloudy
4:45 PM 37.4 °F 30.3 °F 12.2 °F 36% 29.97 in 10.0 mi West 10.4 mph - N/A   Partly Cloudy
4:55 PM 35.6 °F 27.5 °F 14.0 °F 41% 29.97 in 10.0 mi West 11.5 mph - N/A   Clear
5:15 PM 35.6 °F 28.6 °F 17.6 °F 48% 29.98 in 10.0 mi West 9.2 mph - N/A   Clear
5:35 PM 32.0 °F 27.5 °F 17.6 °F 55% 29.97 in 10.0 mi West 4.6 mph - N/A   Clear
5:55 PM 32.0 °F 24.2 °F 19.4 °F 60% 29.99 in 10.0 mi West 9.2 mph - N/A   Clear
6:15 PM 32.0 °F 26.4 °F 19.4 °F 60% 29.98 in 10.0 mi West 5.8 mph - N/A   Clear
6:35 PM 28.4 °F 22.2 °F 19.4 °F 69% 29.99 in 10.0 mi WNW 5.8 mph - N/A   Clear
6:55 PM 26.6 °F 20.0 °F 19.4 °F 74% 29.99 in 10.0 mi SE 5.8 mph - N/A   Clear
7:15 PM 26.6 °F 22.6 °F 17.6 °F 69% 29.99 in 10.0 mi SSW 3.5 mph - N/A   Clear
7:35 PM 24.8 °F 20.5 °F 19.4 °F 80% 29.98 in 10.0 mi South 3.5 mph - N/A   Clear
7:55 PM 24.8 °F 20.5 °F 19.4 °F 80% 29.99 in 10.0 mi WSW 3.5 mph - N/A   Clear
8:15 PM 28.4 °F 24.6 °F 19.4 °F 69% 29.99 in 10.0 mi East 3.5 mph - N/A   Clear
8:35 PM 26.6 °F - 19.4 °F 74% 30.00 in 10.0 mi Calm Calm - N/A   Clear
8:55 PM 24.8 °F - 19.4 °F 80% 30.01 in 10.0 mi Calm Calm - N/A   Clear
9:15 PM 24.8 °F 20.5 °F 17.6 °F 74% 30.01 in 10.0 mi South 3.5 mph - N/A   Clear
9:35 PM 24.8 °F - 19.4 °F 80% 30.03 in 10.0 mi Calm Calm - N/A   Clear
9:55 PM 24.8 °F - 17.6 °F 74% 30.03 in 10.0 mi Calm Calm - N/A   Clear
10:15 PM 24.8 °F 17.9 °F 17.6 °F 74% 30.03 in 10.0 mi SE 5.8 mph - N/A   Clear
10:35 PM 23.0 °F - 19.4 °F 86% 30.01 in 10.0 mi Calm Calm - N/A   Clear
10:55 PM 24.8 °F 16.1 °F 17.6 °F 74% 30.01 in 10.0 mi WSW 8.1 mph - N/A   Clear
11:15 PM 26.6 °F 22.6 °F 17.6 °F 69% 30.01 in 10.0 mi ESE 3.5 mph - N/A   Clear
11:35 PM 24.8 °F - 15.8 °F 69% 30.01 in 10.0 mi Calm Calm - N/A   Clear
11:55 PM 26.6 °F 21.2 °F 15.8 °F 64% 30.00 in 10.0 mi South 4.6 mph - N/A   Clear